CAPE
0 0 0 0 0 0 0 0 0 0 0 0 0 0 0 0 0 0 0 0 0 0 0 0 0 0 0 0 0 0 0 0 1407 1066 734 588 718 714 1166 924 806 553 1163 907 1338 1135 1307 1402 1628 2044 2209 2432 2606 2510 2311 2094 2153 1997 1883 1522 1418 1508 1622 1382 1151 1157 1153 872 1133 1157 967 966 1026 1141 1044 1263 1132 1389 1368 1363 1552 1534 1820 2803 2501 2441
0 0 0 0 0 0 0 0 0 0 0 0 0 0 0 0 0 0 0 0 0 0 0 0 0 0 0 0 0 0 0 78 1445 857 774 592 802 894 931 722 725 1071 1234 1142 1165 1001 1002 1265 1498 1920 2316 2417 2404 2474 2294 2201 2221 1884 1769 1336 1479 1609 1700 1756 1878 1265 880 923 939 938 1023 1040 1007 1073 926 1148 1068 1300 1248 1209 1021 1720 2224 2251 2215 2641
0 0 0 0 0 0 0 0 0 0 0 0 0 0 0 0 0 0 0 0 0 0 0 0 0 0 0 0 0 0 4 848 1435 849 842 879 766 1052 754 781 1128 1348 1419 1567 1258 828 1114 1129 1437 1681 2135 2329 2357 2319 2231 2321 2098 1805 1514 1350 998 730 1095 1252 1024 961 841 828 792 822 1035 954 977 908 1196 1049 1280 1170 1106 1322 1485 1657 1681 2092 1728 2268
0 0 0 0 0 0 0 0 0 0 0 0 0 0 0 0 0 0 0 0 1 0 0 0 0 0 0 0 0 0 303 1344 1188 899 1008 964 730 841 983 832 1100 1250 1334 1375 1059 1071 1158 970 1144 1853 2324 2428 2384 2018 2323 2221 2064 1926 1435 1100 902 942 1220 1003 811 862 966 878 780 825 950 944 1121 1057 987 1032 1062 1368 1450 1341 1414 2104 1687 1691 1543 2079
0 0 0 0 0 0 0 0 0 0 0 0 0 0 0 0 0 0 1 0 0 0 0 0 0 0 0 0 0 516 1310 1047 1147 1056 890 842 947 879 957 1112 925 1110 1257 1098 819 1011 1042 1026 1429 2126 2314 2481 2290 2111 2195 2158 2069 1976 1321 1044 1195 1082 1035 954 1063 1101 1070 1017 961 1000 780 837 902 954 1192 1099 1359 1406 1503 1242 1317 1170 1631 1373 1563 1972
0 0 0 0 0 0 0 0 0 0 0 0 0 0 0 0 0 0 1 0 0 0 0 0 0 0 0 0 0 13 1231 961 1170 790 845 905 1037 874 1113 1016 826 908 1088 1066 775 815 1042 1134 1614 2013 2247 2296 2225 2150 2189 2230 2129 1838 1430 1187 1118 963 952 974 1058 1201 1272 1339 1291 1061 1016 965 1062 954 1177 977 1168 1204 1261 964 986 1407 990 1597 1849 1799
0 0 0 0 0 0 0 0 0 0 0 0 0 0 0 0 0 0 0 0 0 0 0 0 0 0 0 0 0 0 1130 1136 997 974 885 1196 1007 1170 1156 1261 1257 1259 1063 1058 893 840 1142 1545 1709 1848 2187 2250 2172 2219 2224 1936 1942 1685 1691 1413 993 998 951 901 1015 1121 1143 1196 1102 1354 1508 1436 1340 1560 1364 1241 915 1000 1082 1227 1131 1287 1162 1465 2153 1982
0 0 0 0 0 0 0 0 0 0 0 0 0 0 0 0 0 0 0 0 0 0 0 0 0 0 0 0 0 0 2165 1169 1067 1094 1003 1199 1081 1239 998 1266 1248 1262 1217 1137 1062 768 1392 1682 1730 1965 2141 2048 2153 2193 2216 2110 1977 1965 1697 1255 1080 1027 950 1162 1245 1205 1130 1146 1116 1238 1300 1476 1761 1389 1131 1114 1104 1322 1103 1253 1165 1261 1156 1167 1180 1242
0 0 0 0 0 0 0 0 0 0 0 0 0 0 0 0 0 0 0 3 1 1 0 0 0 0 0 0 0 0 1092 1020 1080 1469 1571 1301 1294 1152 1098 1200 1264 1194 1142 1288 929 828 1567 1790 1790 1886 2146 2034 2190 2152 1930 1928 1718 1776 1355 1074 1081 1018 1009 1100 1165 1098 1056 1056 1134 1519 1454 1505 1326 1252 1216 1220 918 1048 1415 996 870 920 766 1337 1313 914
0 0 0 0 0 0 0 0 0 0 0 0 0 0 0 0 0 0 1 0 16 15 6 0 0 0 0 0 0 0 688 1014 968 1389 1404 1412 1755 1382 1100 1496 1533 1447 1686 1864 1539 1628 1556 1790 1818 1918 2056 2104 2069 1805 2037 1891 1422 1412 1200 1237 1210 1228 1124 1140 1114 1108 1101 954 983 1087 1046 1188 1506 1370 1125 1025 1196 1288 1655 1347 1379 1368 1274 897 844 789
0 0 0 0 0 0 0 0 0 0 0 0 0 0 0 0 0 0 0 0 17 21 0 0 0 0 0 0 0 0 720 1186 801 1134 1402 1508 1760 1557 1564 1622 1808 1793 1824 1741 1830 1718 1604 1604 1583 1445 1106 1231 1509 1654 1457 1425 1306 1410 1252 1258 1370 1187 1019 1070 1128 1153 1085 920 800 820 1086 1031 776 936 1020 1044 991 1693 1328 1333 1154 1091 879 730 487 666
0 0 0 0 0 0 0 0 0 0 0 0 0 0 0 0 0 0 0 0 20 2 0 0 0 0 0 0 0 1 17 873 874 655 1221 1681 1664 1613 1529 1612 1725 1664 1633 1661 1798 1565 1706 1596 1431 1102 1021 1416 1521 1433 1310 1192 1226 1228 1152 1264 1211 1172 1219 1337 1104 982 855 745 850 1039 1179 1046 794 1131 840 792 912 1006 938 1114 818 656 791 631 612 326
0 0 0 0 0 0 0 0 0 0 0 0 0 0 0 0 0 0 0 3 0 0 0 0 0 0 0 0 0 0 3 555 1214 853 1230 1354 1705 1735 1567 1495 1672 1508 1457 1677 1779 1649 1582 1320 1224 1131 980 1248 1093 1200 1155 1047 917 1112 1113 1288 1242 1052 1011 917 1098 1178 1189 1210 1328 955 808 737 1195 740 591 987 1035 593 546 455 378 398 638 652 323 108
2 0 0 0 0 0 0 0 0 0 0 0 0 0 0 0 0 0 0 0 0 0 0 0 0 0 0 0 0 0 35 90 646 905 820 860 1045 936 1757 1640 1702 1648 1821 1879 1703 1608 1252 1140 1020 1107 1155 1008 931 970 1062 992 900 1013 1151 1196 1117 978 866 964 924 982 1126 909 974 1093 770 778 748 637 487 642 555 552 422 362 247 245 133 434 248 106
3 0 0 0 0 0 1 0 0 0 0 0 0 0 0 0 0 0 0 0 0 0 0 0 0 0 0 0 0 0 22 44 44 217 615 929 686 1517 1507 1554 1638 1514 1696 1653 1440 1240 1244 1255 1163 1183 998 947 853 900 1118 1039 926 964 1052 990 812 851 795 975 953 840 801 769 756 749 662 676 691 677 574 510 476 426 391 102 53 19 98 4 0 0
0 0 0 0 0 0 0 0 0 0 0 0 0 0 4 9 0 0 0 0 0 0 0 0 0 0 0 434 36 0 0 30 13 793 409 548 727 1562 1566 1583 1572 1829 1600 1434 1264 1220 1438 1335 1164 1035 981 988 748 1076 1110 917 1036 920 927 862 758 683 711 643 682 733 666 603 721 703 671 646 608 554 498 374 202 114 0 28 97 17 3 0 0 0
0 10 0 0 1 0 0 0 0 0 0 0 0 0 0 0 0 2 0 0 6 0 0 0 0 17 623 181 208 8 1 1 0 712 440 313 495 1216 1666 1770 1730 1409 1350 1293 1250 1536 1392 1551 996 913 1102 925 681 995 919 926 1064 1063 907 714 721 674 631 572 557 589 541 547 568 528 468 406 332 173 1 0 0 0 1 5 3 0 0 0 0 0
4 4 6 1 0 0 0 0 0 0 0 0 0 0 0 0 2 8 0 2 0 1 0 0 0 0 110 136 406 18 10 0 0 203 844 1184 1213 1247 1469 1449 1091 1295 1386 1586 1588 1536 1549 1262 1000 978 1114 890 589 845 920 944 945 1035 756 703 640 642 644 663 573 600 538 444 362 341 280 68 0 0 2 8 10 20 18 11 8 3 0 3 5 5
4 4 8 0 0 0 0 0 0 0 0 0 0 0 1 0 0 0 3 13 0 0 0 0 0 0 0 139 55 69 27 2 0 3 645 1125 1083 1401 1358 1136 1210 1276 1438 1702 1460 1440 1371 1112 1231 1316 928 810 771 1014 974 908 836 794 790 744 666 597 578 608 522 428 335 182 105 0 0 0 2 4 8 8 9 6 2 0 2 4 8 10 7 9
3 8 4 2 0 0 0 0 0 0 0 0 0 0 0 0 0 0 2 2 0 0 0 0 0 0 0 0 32 113 45 4 2 45 121 584 738 1158 1335 1076 1155 1102 1326 1241 1472 1393 1400 1246 1132 1167 1006 841 763 888 916 832 734 699 674 696 618 637 612 483 319 227 72 0 0 0 0 2 2 4 4 7 5 6 184 219 5 5 7 10 6 7
4 6 3 1 1 0 0 0 0 0 0 0 0 0 0 0 0 0 1 0 1 0 0 0 3 0 0 0 9 8 52 159 137 99 299 358 1232 1156 1073 1286 841 1231 917 1234 1305 1572 1524 1123 968 1024 934 881 814 689 688 689 605 566 571 512 557 511 410 220 158 97 1 2 2 3 4 87 94 254 139 220 224 281 291 230 7 10 6 3 8 6
7 6 4 0 0 0 0 0 0 0 0 0 0 0 0 0 0 0 2 0 0 0 3 0 0 3 346 29 12 26 120 124 23 59 134 109 376 1126 1301 1295 1254 1422 1515 1770 1747 1541 1390 1105 1204 1355 885 826 764 668 482 646 660 574 534 550 479 332 0 0 0 0 2 3 4 4 12 296 224 293 296 366 325 346 270 180 10 12 0 2 4 6
37 14 4 0 0 0 0 0 0 0 0 0 0 0 0 0 0 0 0 8 0 0 1 0 0 122 821 592 160 221 146 56 16 44 126 94 194 1783 1705 1898 1850 1780 1839 1931 1707 1486 1352 1209 1295 1153 828 710 676 622 591 518 489 460 440 360 163 3 1 1 1 2 2 4 4 2 0 43 233 305 382 394 326 315 226 6 5 2 6 4 4 5
4 8 6 2 0 2 0 0 0 0 1 0 0 0 0 0 0 0 0 1 9 10 3 26 1 173 818 876 793 710 65 29 73 99 212 769 2532 2086 2185 2072 2031 2037 1958 1814 1677 1465 1352 1278 1202 1010 918 852 729 571 502 401 456 497 476 399 278 2 1 2 2 1 0 2 2 2 5 4 118 250 323 261 245 170 128 6 6 4 5 5 6 3
0 20 0 4 0 1 0 1 0 0 0 0 0 0 0 0 0 0 1 33 31 16 4 1 3 154 910 1109 769 606 51 38 68 882 2072 2463 2462 2426 2233 2122 2152 1939 1659 1508 1496 1271 1247 1077 1094 954 857 742 699 562 480 464 492 503 457 410 124 0 0 0 2 2 1 0 4 5 3 5 6 6 121 204 167 49 8 7 6 5 1 6 4 1
1 17 9 4 4 5 2 0 0 0 0 0 0 0 0 0 0 0 0 20 17 3 7 11 209 551 770 1084 600 869 1839 2202 2418 2350 2534 2480 2162 2067 2084 2064 1859 1805 1574 1489 1379 1212 1170 1027 932 820 790 754 735 624 523 524 547 505 470 386 1 1 3 2 0 0 0 4 5 6 6 6 6 3 3 123 172 167 6 5 4 4 5 3 1 1
1 2 1 4 0 0 0 0 0 0 0 5 0 0 0 0 0 28 24 22 9 11 0 11 258 442 462 638 291 950 1340 1688 2012 2159 2178 2059 2098 1970 1888 1904 1730 1545 1496 1399 1348 1215 1042 925 893 888 899 857 723 646 532 573 524 506 476 403 0 0 4 3 3 3 4 5 4 0 3 3 3 5 3 5 6 6 4 2 4 4 2 2 1 2
4 9 0 1 0 0 0 0 0 0 0 0 0 0 0 0 0 35 24 12 3 9 11 10 685 940 283 297 404 983 1263 1807 1845 1745 1792 1945 2004 1905 1791 1574 1479 1490 1476 1386 1271 1124 934 939 932 918 958 912 643 548 476 542 510 515 472 148 23 0 2 7 2 2 3 2 0 1 2 3 4 4 6 7 6 4 6 5 4 4 3 1 2 0
0 2 6 0 1 4 0 0 0 0 0 0 0 0 4 0 0 6 117 13 35 6 8 147 308 171 2 139 415 805 1046 1638 1543 1542 1620 1669 1737 1607 1520 1443 1472 1444 1450 1250 1113 1025 864 825 1002 838 716 661 404 548 519 524 497 347 139 116 62 0 0 0 0 0 1 0 1 0 1 4 4 5 6 5 5 5 4 4 7 4 3 4 3 3
0 0 3 0 4 1 6 3 3 1 0 0 0 0 8 0 0 0 20 24 12 41 3 3 132 113 5 13 189 908 1393 1531 1431 1402 1414 1474 1520 1502 1440 1422 1423 1302 1313 1163 1058 986 915 904 924 828 748 640 577 529 505 416 365 287 20 142 90 6 0 4 3 0 0 0 1 2 2 2 3 1 3 3 4 4 5 6 6 5 4 4 3 1
0 0 0 2 2 2 8 3 6 5 8 0 3 0 5 10 0 0 9 70 81 52 13 0 34 47 34 547 107 1267 1543 1430 1386 1346 1367 1435 1388 1461 1466 1351 1253 1163 1170 1042 1000 912 823 800 804 773 676 577 534 526 476 423 317 60 35 60 6 5 5 0 1 2 1 0 1 2 1 1 2 3 2 3 2 4 2 3 5 4 5 6 4 2
0 0 0 4 3 0 0 4 7 0 8 1 6 6 7 7 6 4 3 9 23 27 28 38 15 8 134 325 552 763 1363 1415 1343 1171 1178 1206 1205 1232 1247 1187 1134 1125 1081 933 973 936 824 798 717 757 740 627 587 574 504 387 237 162 180 132 18 1 0 0 0 0 0 0 0 0 0 0 1 0 0 1 2 1 2 2 3 3 4 5 4 4
0 0 0 0 0 2 0 0 6 4 46 32 38 10 0 7 12 4 0 2 7 30 34 0 8 633 750 657 722 562 954 1356 1219 909 1009 1038 1200 915 911 878 982 909 1011 982 896 997 959 902 798 758 720 608 595 473 336 291 157 91 24 0 1 0 0 1 0 0 0 0 0 0 0 0 0 0 0 0 0 4 2 2 2 5 2 2 4 4
3 0 0 0 0 0 0 15 16 6 6 6 3 37 17 19 14 23 33 38 41 21 12 7 390 1240 1473 1163 1374 1121 1326 1166 926 940 878 904 727 753 647 748 827 885 1030 1029 957 860 849 608 742 680 636 585 517 437 333 126 130 66 0 0 0 0 0 0 0 0 0 0 0 0 0 0 0 66 30 0 0 0 0 0 0 2 2 2 2 0
9 1 0 1 0 2 0 0 0 0 0 643 283 552 124 17 1 0 10 11 14 4 4 11 438 1122 1449 1450 1371 1211 1130 810 694 450 888 786 793 682 568 604 708 748 872 818 865 894 802 786 693 635 535 479 434 375 142 123 38 28 0 0 0 1 1 0 0 0 0 0 0 0 0 0 0 0 0 0 0 0 0 0 2 1 0 1 0 1
0 3 5 4 0 0 0 0 0 0 471 152 806 470 328 108 120 31 22 5 3 9 1 4 35 530 917 857 1084 1060 839 719 474 535 780 869 796 635 512 556 554 580 628 741 874 979 738 639 581 580 293 428 418 190 72 16 0 0 0 0 1 1 1 0 0 0 0 0 0 0 0 0 0 0 8 0 0 0 0 0 0 0 0 0 0 0
1 4 3 1 0 2 0 0 0 59 206 550 535 520 262 201 80 54 24 22 41 13 0 2 0 1074 902 796 835 874 715 570 588 607 906 878 727 576 503 516 487 587 672 741 859 831 722 675 594 379 539 415 379 126 0 0 0 0 0 0 0 0 0 0 0 5 1 20 38 35 0 0 0 9 0 0 0 0 0 0 0 0 0 0 0 0
11 3 1 4 0 0 8 2 0 12 0 154 243 205 141 106 136 84 5 52 44 16 11 9 7 1171 1046 953 962 771 652 567 630 796 871 716 594 629 434 470 606 778 814 810 760 728 681 591 596 562 461 376 240 63 0 0 0 88 97 122 102 50 38 39 30 48 43 49 20 0 0 0 0 0 0 0 0 0 0 0 0 0 0 0 0 0
10 1 0 0 1 0 0 0 0 2 45 536 76 424 330 331 98 100 20 22 0 11 5 3 3 1193 1057 977 929 931 634 709 622 820 839 621 532 516 405 446 774 756 784 627 627 667 610 581 534 474 402 301 178 140 0 0 40 149 169 172 98 20 10 0 0 0 0 0 0 0 0 0 0 0 0 0 0 0 0 0 0 0 0 0 0 0
4 0 0 0 0 0 0 1 1 0 233 548 599 636 275 269 100 26 1 0 6 0 12 2 55 1254 1174 1134 976 882 639 558 615 782 724 537 460 430 392 671 775 748 792 631 621 453 359 557 491 416 365 179 129 124 0 0 0 68 38 24 124 0 0 0 0 0 0 0 0 0 0 0 1 1 0 0 0 0 0 0 0 0 0 0 0 0
1 0 0 0 0 0 0 1 0 74 244 585 438 511 247 329 226 7 0 0 657 34 1 2 2 981 1130 1133 897 704 542 638 791 781 745 426 350 307 416 705 732 733 708 669 641 541 479 450 397 133 187 187 156 96 146 159 51 49 1 1 0 0 0 0 0 0 0 0 0 0 0 0 0 0 0 0 0 0 0 0 0 0 0 0 0 0
0 2 6 0 0 1 1 0 0 75 250 326 261 257 498 332 33 1 905 541 1005 839 38 1 26 1058 1068 1154 1048 858 500 965 794 621 490 366 223 214 483 621 567 591 607 590 607 512 462 407 360 288 246 224 176 33 0 2 0 0 0 0 0 0 0 0 0 0 0 0 0 0 0 0 0 0 0 0 0 0 0 0 0 0 0 0 0 1
0 0 0 0 0 0 0 0 0 0 143 317 184 310 396 402 63 453 834 876 842 1232 311 0 17 1342 1243 1208 989 656 801 866 793 568 414 274 289 309 447 610 528 519 484 522 556 437 404 393 345 272 134 164 175 0 0 0 0 0 0 0 0 0 0 0 0 0 0 0 0 0 0 0 0 0 0 0 0 0 0 0 0 0 0 0 0 0
0 0 0 0 0 0 0 0 49 74 298 452 137 163 304 320 587 837 872 626 719 978 1006 114 16 1040 1117 1125 482 824 814 752 730 460 422 333 273 265 370 451 401 426 454 516 503 378 377 321 254 246 266 258 202 187 109 0 0 0 0 0 0 0 0 0 0 0 0 0 0 0 0 0 0 0 0 0 0 0 0 0 0 0 0 0 0 0
0 0 442 222 0 0 88 153 96 415 454 444 822 770 585 610 760 679 681 713 735 721 862 975 980 878 974 647 665 655 738 561 506 428 411 326 280 300 292 374 389 430 537 589 489 392 325 290 343 374 344 278 261 224 49 0 0 0 0 0 0 0 0 0 0 0 0 0 0 0 0 0 0 0 0 0 0 0 0 0 2 1 0 1 0 0
333 327 489 162 72 239 500 631 560 353 476 643 849 1086 734 596 662 742 662 616 773 866 967 920 935 710 675 492 643 677 687 616 377 328 345 318 426 358 241 274 373 477 652 610 506 400 379 370 345 340 344 319 251 62 0 0 0 0 0 0 0 0 0 0 0 0 0 0 0 0 0 0 0 0 0 0 0 0 0 0 0 0 0 0 0 0
252 402 239 52 54 14 48 88 310 698 722 721 908 941 921 722 652 838 742 648 563 695 845 702 903 867 716 508 642 781 651 494 460 327 303 301 338 318 240 338 544 616 684 565 468 421 369 151 313 314 315 297 46 0 0 0 0 0 0 0 0 0 0 0 0 0 0 0 0 0 0 0 0 0 0 0 0 0 0 0 0 0 0 0 0 0
292 271 91 39 17 7 319 198 424 521 397 473 550 380 509 434 598 789 743 888 759 541 581 620 717 803 640 504 538 542 595 493 314 280 315 309 283 308 294 407 604 597 494 540 511 448 252 143 339 366 327 118 0 0 0 0 0 0 0 0 0 0 0 0 0 0 0 0 0 0 0 0 0 0 0 0 0 0 0 0 0 0 0 0 0 0
218 116 6 216 136 203 336 267 100 355 472 394 569 981 748 736 541 609 586 716 594 591 493 443 419 494 535 277 518 463 414 352 288 168 170 203 228 210 261 496 618 601 545 526 534 480 464 217 160 219 128 3 0 0 0 0 0 3 7 7 10 3 0 0 0 0 0 0 0 0 0 0 0 0 0 0 0 0 0 0 0 0 0 0 0 0
249 35 168 45 0 32 58 295 442 108 74 143 392 614 627 652 590 530 461 396 387 422 497 346 421 476 361 434 607 380 321 280 237 152 131 135 141 159 268 538 626 593 584 480 376 237 292 301 213 146 46 0 0 0 0 0 0 4 5 9 4 0 0 0 0 0 0 0 0 0 0 0 0 0 0 0 0 0 0 0 0 0 0 0 0 0
146 61 455 56 8 7 332 517 620 484 495 809 524 676 799 627 429 401 192 257 235 294 368 550 507 356 382 352 480 388 301 235 189 14 5 32 52 109 288 544 615 614 592 391 317 451 209 215 128 43 16 0 0 0 0 0 0 3 1 4 0 0 0 0 0 0 0 0 0 0 0 0 0 0 0 0 0 0 0 0 0 0 0 0 0 0
Wind_Speed
nan nan nan nan nan nan nan nan nan nan nan nan nan nan nan nan nan nan nan nan nan nan nan nan nan nan nan nan nan nan nan nan 52 53 55 54 52 45 42 38 41 40 37 36 28 30 31 31 24 15 12 11 13 15 18 20 22 23 24 24 27 30 32 32 33 32 32 35 31 29 26 26 28 25 21 21 22 24 19 16 11 9 11 8 9 8
nan nan nan nan nan nan nan nan nan nan nan nan nan nan nan nan nan nan nan nan nan nan nan nan nan nan nan nan nan nan nan nan 56 50 51 53 49 42 37 36 35 36 31 30 29 28 32 30 19 15 12 12 12 15 18 21 24 23 26 27 31 33 30 28 31 36 36 33 33 30 25 28 28 24 23 22 21 24 19 16 11 10 10 9 8 6
nan nan nan nan nan nan nan nan nan nan nan nan nan nan nan nan nan nan nan nan nan nan nan nan nan nan nan nan nan nan nan 52 49 46 48 51 44 38 34 35 35 32 30 28 26 26 29 26 21 17 17 14 13 15 19 23 25 26 26 31 34 27 26 30 34 37 36 34 33 31 29 31 30 23 23 24 24 23 19 13 11 9 8 9 7 4
nan nan nan nan nan nan nan nan nan nan nan nan nan nan nan nan nan nan nan nan nan nan nan nan nan nan nan nan nan nan 42 58 49 48 45 39 37 35 35 35 38 36 35 30 26 27 29 26 19 12 14 15 15 15 20 22 25 27 30 34 28 26 35 36 36 37 36 35 34 34 34 35 33 30 25 24 28 25 20 14 11 7 8 9 9 3
nan nan nan nan nan nan nan nan nan nan nan nan nan nan nan nan nan nan nan nan nan nan nan nan nan nan nan nan nan 34 54 58 51 48 41 34 34 36 38 37 36 37 35 31 25 26 26 21 17 14 15 18 17 17 20 21 25 27 33 31 30 39 39 36 36 35 34 33 32 32 34 34 35 33 29 27 25 23 19 15 8 8 14 12 15 9
nan nan nan nan nan nan nan nan nan nan nan nan nan nan nan nan nan nan nan nan nan nan nan nan nan nan nan nan nan nan 48 56 46 50 44 39 37 37 34 32 30 32 32 30 24 22 22 20 21 19 18 19 17 16 19 22 26 28 29 31 40 40 38 36 35 34 32 30 29 31 33 33 31 30 29 27 25 22 18 19 15 13 16 11 11 12
nan nan nan nan nan nan nan nan nan nan nan nan nan nan nan nan nan nan nan nan nan nan nan nan nan nan nan nan nan nan 48 53 48 47 46 39 35 33 31 30 31 29 27 22 23 25 24 24 23 22 22 21 18 19 22 23 25 28 29 35 39 39 37 36 36 35 34 33 31 30 31 33 30 31 30 26 22 21 20 19 14 12 9 5 10 13
nan nan nan nan nan nan nan nan nan nan nan nan nan nan nan nan nan nan nan nan nan nan nan nan nan nan nan nan nan nan 40 50 48 44 43 36 32 31 29 29 30 29 25 24 21 21 22 24 24 24 23 23 22 23 24 24 25 28 33 36 37 38 37 36 37 35 34 34 32 29 30 29 30 31 29 28 24 21 18 16 12 13 6 8 15 15
nan nan nan nan nan nan nan nan nan nan nan nan nan nan nan nan nan nan nan nan nan nan nan nan nan nan nan nan nan nan 34 44 48 43 40 35 28 29 29 28 30 28 27 26 24 19 19 22 26 27 26 24 25 23 23 25 26 31 36 37 37 38 36 36 36 35 36 35 34 32 32 31 30 31 31 31 26 18 14 13 13 15 13 16 16 16
nan nan nan nan nan nan nan nan nan nan nan nan nan nan nan nan nan nan nan nan nan nan nan nan nan nan nan nan nan nan 34 42 44 41 37 33 28 26 28 29 29 27 26 26 25 22 22 24 28 30 30 28 25 22 23 27 29 33 34 36 37 37 34 32 34 34 36 37 35 32 32 33 32 31 31 28 23 17 17 16 16 19 18 18 17 18
nan nan nan nan nan nan nan nan nan nan nan nan nan nan nan nan nan nan nan nan nan nan nan nan nan nan nan nan nan nan 32 41 38 35 34 33 29 25 28 29 31 28 25 25 25 27 28 32 33 40 40 35 24 24 24 29 32 33 32 34 37 36 33 31 33 35 36 38 35 31 30 32 31 29 27 24 19 17 18 17 20 20 18 18 19 18
nan nan nan nan nan nan nan nan nan nan nan nan nan nan nan nan nan nan nan nan nan nan nan nan nan nan nan nan nan nan nan 44 39 32 32 32 30 28 28 30 26 24 22 24 28 30 29 29 32 35 34 24 23 24 29 30 32 32 32 34 36 36 33 32 34 34 35 37 35 32 31 32 30 27 24 20 19 18 20 21 22 19 17 19 20 19
nan nan nan nan nan nan nan nan nan nan nan nan nan nan nan nan nan nan nan nan nan nan nan nan nan nan nan nan nan nan nan 40 39 33 27 25 27 29 27 26 24 22 19 23 29 29 28 30 31 33 31 28 26 27 32 32 29 29 31 31 35 36 34 34 34 34 36 36 35 35 36 33 30 28 23 21 24 26 24 22 20 18 16 18 21 20
nan nan nan nan nan nan nan nan nan nan nan nan nan nan nan nan nan nan nan nan nan nan nan nan nan nan nan nan nan nan nan nan 38 38 30 22 23 25 26 26 26 21 20 26 28 30 28 30 35 34 32 31 27 30 25 22 27 24 27 31 34 36 35 34 34 33 34 35 33 33 31 29 29 30 30 29 28 27 24 21 20 17 16 17 20 22
nan nan nan nan nan nan nan nan nan nan nan nan nan nan nan nan nan nan nan nan nan nan nan nan nan nan nan nan nan nan nan nan nan 35 34 28 25 25 25 27 28 25 26 27 30 30 29 31 33 34 30 28 29 25 23 22 25 26 28 33 35 36 35 34 34 34 35 35 35 32 30 30 31 32 31 29 27 26 23 21 nan nan nan nan nan nan
nan nan nan nan nan nan nan nan nan nan nan nan nan nan nan nan nan nan nan nan nan nan nan nan nan nan nan 28 nan nan nan nan nan 32 28 33 31 28 27 28 28 28 29 31 31 29 27 28 28 30 25 26 22 26 26 24 25 27 28 33 35 36 36 35 35 33 33 34 34 35 35 35 34 31 30 29 27 25 nan nan nan nan nan nan nan nan
nan nan nan nan nan nan nan nan nan nan nan nan nan nan nan nan nan nan nan nan nan nan nan nan nan nan 37 29 38 nan nan nan nan 28 25 31 31 33 33 32 32 31 32 30 27 24 23 23 23 28 22 24 27 28 24 23 23 26 30 32 33 34 34 35 34 32 32 32 33 36 36 36 34 33 nan nan nan nan nan nan nan nan nan nan nan nan
nan nan nan nan nan nan nan nan nan nan nan nan nan nan nan nan nan nan nan nan nan nan nan nan nan nan 31 28 30 nan nan nan nan 32 29 31 34 35 37 33 30 28 24 25 24 21 20 20 21 29 28 28 30 26 23 23 21 24 27 30 32 33 35 36 35 32 31 32 34 36 37 nan nan nan nan nan nan nan nan nan nan nan nan nan nan nan
nan nan nan nan nan nan nan nan nan nan nan nan nan nan nan nan nan nan nan nan nan nan nan nan nan nan nan 34 nan nan nan nan nan nan 39 34 34 40 42 38 31 25 23 19 17 18 18 20 27 34 31 31 26 26 25 22 21 23 27 30 31 33 35 37 34 32 30 32 33 nan nan nan nan nan nan nan nan nan nan nan nan nan nan nan nan nan
nan nan nan nan nan nan nan nan nan nan nan nan nan nan nan nan nan nan nan nan nan nan nan nan nan nan nan nan nan 38 nan nan nan nan 34 40 39 40 41 38 31 23 20 17 18 20 23 31 28 25 29 31 29 29 24 21 20 24 27 31 33 34 35 35 35 32 nan nan nan nan nan nan nan nan nan nan nan nan 28 28 nan nan nan nan nan nan
nan nan nan nan nan nan nan nan nan nan nan nan nan nan nan nan nan nan nan nan nan nan nan nan nan nan nan nan nan nan nan 41 35 nan 30 31 46 45 42 38 31 25 22 22 23 23 29 27 22 22 27 30 29 31 22 23 24 26 28 33 34 35 34 34 34 nan nan nan nan nan nan nan nan 30 31 32 32 31 30 29 nan nan nan nan nan nan
nan nan nan nan nan nan nan nan nan nan nan nan nan nan nan nan nan nan nan nan nan nan nan nan nan nan 27 nan nan nan 42 39 nan nan 31 29 41 49 44 42 36 29 25 25 25 26 26 28 18 23 27 31 32 31 29 28 29 29 31 34 35 35 nan nan nan nan nan nan nan nan nan 32 31 31 32 34 33 32 32 32 nan nan nan nan nan nan
nan nan nan nan nan nan nan nan nan nan nan nan nan nan nan nan nan nan nan nan nan nan nan nan nan 28 28 29 34 33 39 nan nan nan 34 nan 38 54 49 46 41 34 28 26 26 27 28 28 24 27 31 35 34 34 34 32 32 33 35 35 34 nan nan nan nan nan nan nan nan nan nan nan 34 34 34 34 33 33 33 nan nan nan nan nan nan nan
nan nan nan nan nan nan nan nan nan nan nan nan nan nan nan nan nan nan nan nan nan nan nan nan nan 34 39 43 37 35 nan nan nan nan 34 44 54 53 50 44 41 34 30 28 28 29 30 30 31 33 34 33 34 34 34 33 34 36 36 35 35 nan nan nan nan nan nan nan nan nan nan nan 36 36 36 36 33 33 33 nan nan nan nan nan nan nan
nan nan nan nan nan nan nan nan nan nan nan nan nan nan nan nan nan nan nan nan nan nan nan nan nan 25 36 43 41 30 nan nan nan 38 51 55 54 52 46 41 38 35 33 31 30 31 30 30 33 34 34 34 34 34 34 35 35 35 36 35 36 nan nan nan nan nan nan nan nan nan nan nan nan nan 37 36 35 nan nan nan nan nan nan nan nan nan
nan nan nan nan nan nan nan nan nan nan nan nan nan nan nan nan nan nan nan nan nan nan nan nan 21 26 26 32 36 44 55 51 47 46 46 49 50 48 43 40 39 37 35 34 34 33 32 32 34 35 35 34 33 33 33 34 36 38 36 34 nan nan nan nan nan nan nan nan nan nan nan nan nan nan nan 37 35 36 nan nan nan nan nan nan nan nan
nan nan nan nan nan nan nan nan nan nan nan nan nan nan nan nan nan nan nan nan nan nan nan nan 23 29 29 24 31 35 43 47 48 45 43 42 43 42 41 39 38 38 37 36 35 34 34 36 36 36 36 33 32 32 33 36 39 39 36 34 nan nan nan nan nan nan nan nan nan nan nan nan nan nan nan nan nan nan nan nan nan nan nan nan nan nan
nan nan nan nan nan nan nan nan nan nan nan nan nan nan nan nan nan nan nan nan nan nan nan nan 30 30 30 27 28 33 36 39 38 39 38 38 39 38 39 41 42 39 36 35 36 37 39 39 35 34 34 34 34 33 34 35 38 37 34 33 nan nan nan nan nan nan nan nan nan nan nan nan nan nan nan nan nan nan nan nan nan nan nan nan nan nan
nan nan nan nan nan nan nan nan nan nan nan nan nan nan nan nan nan nan 23 nan nan nan nan 24 31 32 nan 29 30 34 30 32 31 31 33 34 37 40 40 39 37 37 36 36 36 37 40 36 34 34 34 34 34 34 34 35 35 34 34 33 nan nan nan nan nan nan nan nan nan nan nan nan nan nan nan nan nan nan nan nan nan nan nan nan nan nan
nan nan nan nan nan nan nan nan nan nan nan nan nan nan nan nan nan nan nan nan nan nan nan nan 17 22 nan nan 29 38 40 36 31 28 28 30 31 31 31 31 32 33 33 36 38 39 37 36 37 36 34 33 33 33 35 35 34 33 nan 33 nan nan nan nan nan nan nan nan nan nan nan nan nan nan nan nan nan nan nan nan nan nan nan nan nan nan
nan nan nan nan nan nan nan nan nan nan nan nan nan nan nan nan nan nan nan nan nan nan nan nan nan nan nan 31 34 42 39 35 31 27 26 27 30 30 30 29 29 29 36 40 40 39 36 35 36 36 35 32 32 34 35 34 33 nan nan nan nan nan nan nan nan nan nan nan nan nan nan nan nan nan nan nan nan nan nan nan nan nan nan nan nan nan
nan nan nan nan nan nan nan nan nan nan nan nan nan nan nan nan nan nan nan nan nan nan nan nan nan nan 34 39 38 33 35 32 30 27 25 24 28 30 30 30 30 32 36 37 38 37 36 35 35 35 32 32 32 33 32 32 32 33 32 30 nan nan nan nan nan nan nan nan nan nan nan nan nan nan nan nan nan nan nan nan nan nan nan nan nan nan
nan nan nan nan nan nan nan nan nan nan nan nan nan nan nan nan nan nan nan nan nan nan nan nan nan 36 42 36 28 27 29 29 28 27 24 23 24 27 28 30 33 34 36 37 36 36 35 34 33 32 31 30 31 30 31 32 33 nan nan nan nan nan nan nan nan nan nan nan nan nan nan nan nan nan nan nan nan nan nan nan nan nan nan nan nan nan
nan nan nan nan nan nan nan nan nan nan nan nan nan nan nan nan nan nan nan nan nan nan nan nan 32 42 47 38 31 24 25 25 26 27 25 23 21 25 27 30 33 34 35 35 35 36 35 32 30 29 28 28 29 30 32 32 34 nan nan nan nan nan nan nan nan nan nan nan nan nan nan nan nan nan nan nan nan nan nan nan nan nan nan nan nan nan
nan nan nan nan nan nan nan nan nan nan nan 33 35 34 25 nan nan nan nan nan nan nan nan nan 32 34 39 39 39 32 27 30 28 27 29 25 22 24 26 31 31 31 32 33 33 33 32 32 32 31 30 29 30 32 35 35 nan nan nan nan nan nan nan nan nan nan nan nan nan nan nan nan nan nan nan nan nan nan nan nan nan nan nan nan nan nan
nan nan nan nan nan nan nan nan nan nan 30 29 29 30 31 37 29 nan nan nan nan nan nan nan nan 36 41 44 45 39 37 37 31 29 30 31 29 26 26 28 28 30 30 29 30 31 33 32 31 29 29 30 31 32 nan nan nan nan nan nan nan nan nan nan nan nan nan nan nan nan nan nan nan nan nan nan nan nan nan nan nan nan nan nan nan nan
nan nan nan nan nan nan nan nan nan nan 25 28 25 23 23 23 nan nan nan nan nan nan nan nan nan 43 44 49 43 40 36 34 31 27 27 32 33 32 29 27 27 28 30 29 29 31 32 31 30 29 29 29 29 28 nan nan nan nan nan nan nan nan nan nan nan nan nan nan nan nan nan nan nan nan nan nan nan nan nan nan nan nan nan nan nan nan
nan nan nan nan nan nan nan nan nan nan nan 18 18 22 22 26 27 nan nan nan nan nan nan nan nan 45 45 48 43 36 30 31 28 25 25 28 33 33 29 29 28 28 28 30 29 30 30 30 30 29 30 32 32 nan nan nan nan nan nan 26 26 nan nan nan nan nan nan nan nan nan nan nan nan nan nan nan nan nan nan nan nan nan nan nan nan nan
nan nan nan nan nan nan nan nan nan nan nan 23 nan 19 17 24 nan 26 nan nan nan nan nan nan nan 42 43 43 43 35 29 26 26 26 27 29 31 31 31 29 27 27 30 30 29 30 29 29 30 31 31 32 33 31 nan nan nan 29 28 27 nan nan nan nan nan nan nan nan nan nan nan nan nan nan nan nan nan nan nan nan nan nan nan nan nan nan
nan nan nan nan nan nan nan nan nan nan 26 21 20 17 19 19 nan nan nan nan nan nan nan nan nan 40 41 39 38 30 27 28 26 28 29 32 31 30 30 29 27 28 30 28 27 29 29 28 28 30 31 31 30 30 nan nan nan nan nan nan 24 nan nan nan nan nan nan nan nan nan nan nan nan nan nan nan nan nan nan nan nan nan nan nan nan nan
nan nan nan nan nan nan nan nan nan nan 26 25 22 22 19 20 22 nan nan nan 34 nan nan nan nan 37 38 33 26 23 25 31 34 33 33 34 33 30 30 28 27 26 27 25 26 26 25 25 27 30 30 29 29 nan 29 28 nan nan nan nan nan nan nan nan nan nan nan nan nan nan nan nan nan nan nan nan nan nan nan nan nan nan nan nan nan nan
nan nan nan nan nan nan nan nan nan nan 23 23 22 20 19 19 nan nan 31 32 31 34 nan nan nan 34 31 24 19 22 35 45 42 35 34 33 32 31 31 30 27 25 26 27 27 24 23 25 27 29 28 27 27 nan nan nan nan nan nan nan nan nan nan nan nan nan nan nan nan nan nan nan nan nan nan nan nan nan nan nan nan nan nan nan nan nan
nan nan nan nan nan nan nan nan nan nan 21 18 22 22 22 22 nan 30 29 31 33 35 24 nan nan 33 27 23 23 35 43 38 35 34 33 33 31 29 30 28 25 26 28 27 24 22 24 25 27 27 24 23 26 nan nan nan nan nan nan nan nan nan nan nan nan nan nan nan nan nan nan nan nan nan nan nan nan nan nan nan nan nan nan nan nan nan
nan nan nan nan nan nan nan nan nan nan 22 17 17 20 21 21 25 27 27 27 33 35 39 29 nan 32 31 28 34 38 40 38 34 33 31 29 28 28 28 27 29 31 28 25 23 23 24 25 26 24 23 24 25 26 28 nan nan nan nan nan nan nan nan nan nan nan nan nan nan nan nan nan nan nan nan nan nan nan nan nan nan nan nan nan nan nan
nan nan 27 25 nan nan nan 28 nan 24 25 22 21 24 22 21 25 26 27 30 31 36 38 41 41 40 33 37 38 37 37 33 31 28 29 26 26 27 28 29 30 29 26 23 23 23 23 25 24 23 25 25 28 28 nan nan nan nan nan nan nan nan nan nan nan nan nan nan nan nan nan nan nan nan nan nan nan nan nan nan nan nan nan nan nan nan
26 26 23 21 nan 33 33 31 27 27 26 24 20 22 22 23 26 28 29 30 33 35 35 38 36 30 23 34 32 34 36 35 30 29 29 26 26 29 30 31 29 27 25 26 24 22 25 24 24 25 28 29 29 nan nan nan nan nan nan nan nan nan nan nan nan nan nan nan nan nan nan nan nan nan nan nan nan nan nan nan nan nan nan nan nan nan
24 21 21 nan nan nan nan nan 25 26 28 26 24 24 23 21 25 27 27 29 32 32 33 33 31 28 28 28 33 34 34 33 33 30 30 26 28 29 27 27 25 22 23 26 27 26 25 24 25 28 29 29 nan nan nan nan nan nan nan nan nan nan nan nan nan nan nan nan nan nan nan nan nan nan nan nan nan nan nan nan nan nan nan nan nan nan
19 23 nan nan nan nan 31 33 30 25 22 24 25 23 22 22 22 26 27 27 29 33 32 31 30 30 30 30 35 33 28 27 29 30 27 26 28 27 25 24 24 22 23 26 26 25 24 24 27 30 29 28 nan nan nan nan nan nan nan nan nan nan nan nan nan nan nan nan nan nan nan nan nan nan nan nan nan nan nan nan nan nan nan nan nan nan
19 23 nan 31 26 31 33 29 23 23 23 25 30 30 27 25 23 24 27 28 28 30 31 29 29 29 26 31 34 30 27 26 28 27 27 26 26 25 25 24 23 24 25 24 23 24 25 26 27 28 31 nan nan nan nan nan nan nan nan nan nan nan nan nan nan nan nan nan nan nan nan nan nan nan nan nan nan nan nan nan nan nan nan nan nan nan
18 nan 23 nan nan nan nan 27 26 25 nan 27 25 27 28 28 24 25 26 26 27 29 29 30 27 22 27 29 28 29 27 23 22 24 26 27 25 25 25 26 26 27 25 24 25 26 25 23 32 33 nan nan nan nan nan nan nan nan nan nan nan nan nan nan nan nan nan nan nan nan nan nan nan nan nan nan nan nan nan nan nan nan nan nan nan nan
23 nan 20 nan nan nan 21 25 30 30 30 29 24 25 28 29 28 28 27 27 26 26 27 28 29 27 27 26 26 28 28 25 24 nan nan nan nan 26 26 27 27 26 26 26 28 30 31 33 33 nan nan nan nan nan nan nan nan nan nan nan nan nan nan nan nan nan nan nan nan nan nan nan nan nan nan nan nan nan nan nan nan nan nan nan nan nan
Wind_Direction
nan nan nan nan nan nan nan nan nan nan nan nan nan nan nan nan nan nan nan nan nan nan nan nan nan nan nan nan nan nan nan nan 256 250 249 252 254 259 256 248 249 249 243 248 237 224 206 201 196 204 211 226 234 236 244 249 255 259 259 260 257 253 252 254 258 262 262 264 266 264 261 255 256 252 253 252 252 251 243 243 261 257 255 259 263 275
nan nan nan nan nan nan nan nan nan nan nan nan nan nan nan nan nan nan nan nan nan nan nan nan nan nan nan nan nan nan nan nan 257 253 253 259 258 262 269 263 257 252 256 244 242 245 229 215 201 179 205 218 238 236 238 247 250 253 256 257 256 249 251 256 258 261 259 259 262 266 269 261 261 260 259 257 256 266 265 255 238 248 269 269 268 282
nan nan nan nan nan nan nan nan nan nan nan nan nan nan nan nan nan nan nan nan nan nan nan nan nan nan nan nan nan nan nan 253 256 256 257 260 261 261 266 267 264 266 262 251 243 244 250 239 201 185 193 206 222 238 243 248 247 250 251 253 255 262 264 255 254 257 260 264 267 271 269 266 264 265 261 265 262 266 265 240 227 242 250 265 243 267
nan nan nan nan nan nan nan nan nan nan nan nan nan nan nan nan nan nan nan nan nan nan nan nan nan nan nan nan nan nan 254 256 260 264 264 263 266 267 271 272 269 264 257 251 252 260 258 250 236 201 208 203 215 231 241 250 251 248 250 253 265 267 251 252 252 256 259 261 262 261 265 265 263 263 261 258 262 261 253 235 208 226 302 281 294 298
nan nan nan nan nan nan nan nan nan nan nan nan nan nan nan nan nan nan nan nan nan nan nan nan nan nan nan nan nan 216 251 258 261 264 261 260 261 261 263 267 274 270 264 257 256 258 261 252 253 245 231 226 220 226 242 251 251 246 254 256 256 250 254 256 262 265 268 268 267 269 269 270 268 266 261 259 258 255 260 269 279 285 284 305 305 321
nan nan nan nan nan nan nan nan nan nan nan nan nan nan nan nan nan nan nan nan nan nan nan nan nan nan nan nan nan nan 243 255 261 266 266 266 266 267 272 271 270 266 266 269 269 268 259 250 241 244 238 239 238 239 247 252 252 255 258 260 252 257 257 259 264 267 268 270 271 273 270 269 267 264 259 255 255 261 267 267 257 237 239 228 259 266
nan nan nan nan nan nan nan nan nan nan nan nan nan nan nan nan nan nan nan nan nan nan nan nan nan nan nan nan nan nan 257 261 259 265 267 268 271 273 275 278 273 272 270 264 256 256 257 253 252 245 242 247 251 251 252 252 257 262 259 255 257 256 257 255 258 261 259 259 259 264 268 268 268 264 258 256 260 266 267 270 265 257 243 298 299 302
nan nan nan nan nan nan nan nan nan nan nan nan nan nan nan nan nan nan nan nan nan nan nan nan nan nan nan nan nan nan 262 267 266 268 273 271 272 274 276 281 277 272 274 264 254 247 253 256 258 256 248 247 249 255 257 256 256 259 258 258 258 255 254 254 256 260 262 265 266 269 270 268 269 269 265 259 253 246 249 254 273 270 268 321 288 279
nan nan nan nan nan nan nan nan nan nan nan nan nan nan nan nan nan nan nan nan nan nan nan nan nan nan nan nan nan nan 260 263 270 271 277 284 285 278 277 281 278 278 274 269 261 251 252 262 256 251 250 248 250 254 257 256 257 258 258 258 257 256 256 254 257 260 263 265 266 266 271 274 272 270 264 262 264 260 264 269 278 300 314 283 273 275
nan nan nan nan nan nan nan nan nan nan nan nan nan nan nan nan nan nan nan nan nan nan nan nan nan nan nan nan nan nan 270 269 271 276 281 289 294 284 274 276 276 276 274 270 272 262 253 255 252 249 251 242 243 246 253 253 256 256 258 259 258 257 254 257 260 260 262 260 260 264 270 275 274 267 264 262 267 265 274 290 295 280 273 279 276 278
nan nan nan nan nan nan nan nan nan nan nan nan nan nan nan nan nan nan nan nan nan nan nan nan nan nan nan nan nan nan 282 275 271 268 276 284 283 278 274 274 265 261 265 271 268 254 244 245 248 244 227 214 228 238 245 249 252 254 257 256 254 252 256 262 263 263 261 259 260 262 267 271 273 270 264 261 256 261 274 281 278 275 279 281 283 283
nan nan nan nan nan nan nan nan nan nan nan nan nan nan nan nan nan nan nan nan nan nan nan nan nan nan nan nan nan nan nan 284 280 278 277 282 282 281 277 272 272 269 262 262 258 252 254 250 254 259 256 232 234 237 243 246 248 254 251 250 251 253 260 265 270 268 263 262 264 264 270 274 273 272 269 263 261 267 269 271 273 278 281 283 285 281
nan nan nan nan nan nan nan nan nan nan nan nan nan nan nan nan nan nan nan nan nan nan nan nan nan nan nan nan nan nan nan 277 288 283 277 279 283 281 285 285 278 267 258 258 253 252 253 255 259 262 254 247 248 241 241 246 245 247 258 259 259 259 266 272 273 271 267 266 268 271 273 269 264 265 265 261 265 258 261 259 268 272 282 286 281 285
nan nan nan nan nan nan nan nan nan nan nan nan nan nan nan nan nan nan nan nan nan nan nan nan nan nan nan nan nan nan nan nan 289 289 282 282 280 278 284 282 275 275 263 251 250 249 252 253 255 254 248 245 249 255 260 270 279 278 273 270 268 267 270 273 273 272 270 266 268 273 270 263 259 261 262 261 258 260 263 266 265 264 268 276 280 276
nan nan nan nan nan nan nan nan nan nan nan nan nan nan nan nan nan nan nan nan nan nan nan nan nan nan nan nan nan nan nan nan nan 281 282 282 276 272 277 274 277 275 265 253 252 252 252 246 248 247 244 247 253 264 271 275 276 274 272 269 270 272 272 274 272 269 265 261 260 261 260 262 268 271 267 262 260 261 261 263 nan nan nan nan nan nan
nan nan nan nan nan nan nan nan nan nan nan nan nan nan nan nan nan nan nan nan nan nan nan nan nan nan nan 219 nan nan nan nan nan 271 271 267 268 268 264 266 268 267 260 259 260 261 258 255 252 248 241 256 259 262 259 260 260 264 265 266 267 269 271 271 271 268 263 261 258 257 262 269 272 270 267 266 266 266 nan nan nan nan nan nan nan nan
nan nan nan nan nan nan nan nan nan nan nan nan nan nan nan nan nan nan nan nan nan nan nan nan nan nan 225 229 211 nan nan nan nan 267 273 271 267 267 257 250 254 255 259 268 274 275 286 281 277 268 265 262 262 260 263 265 265 271 273 272 270 267 267 271 271 267 264 263 263 264 267 270 269 266 nan nan nan nan nan nan nan nan nan nan nan nan
nan nan nan nan nan nan nan nan nan nan nan nan nan nan nan nan nan nan nan nan nan nan nan nan nan nan 235 229 222 nan nan nan nan 257 277 266 264 263 259 256 257 263 269 283 288 293 295 285 277 267 258 258 257 265 272 272 260 265 268 271 268 268 271 270 268 266 266 269 271 271 270 nan nan nan nan nan nan nan nan nan nan nan nan nan nan nan
nan nan nan nan nan nan nan nan nan nan nan nan nan nan nan nan nan nan nan nan nan nan nan nan nan nan nan 238 nan nan nan nan nan nan 261 270 261 260 259 260 261 264 268 280 287 280 282 275 251 250 255 255 266 268 271 269 267 267 268 268 267 267 269 269 266 268 269 269 270 nan nan nan nan nan nan nan nan nan nan nan nan nan nan nan nan nan
nan nan nan nan nan nan nan nan nan nan nan nan nan nan nan nan nan nan nan nan nan nan nan nan nan nan nan nan nan 248 nan nan nan nan 256 268 275 265 267 268 268 271 270 275 273 269 266 246 244 260 272 277 278 273 267 273 272 272 268 268 266 265 266 266 266 266 nan nan nan nan nan nan nan nan nan nan nan nan 276 278 nan nan nan nan nan nan
nan nan nan nan nan nan nan nan nan nan nan nan nan nan nan nan nan nan nan nan nan nan nan nan nan nan nan nan nan nan nan 252 250 nan 253 259 268 272 269 266 271 273 271 275 275 272 266 266 250 265 273 275 274 273 278 280 278 271 268 268 267 267 265 262 260 nan nan nan nan nan nan nan nan 271 272 270 269 269 268 268 nan nan nan nan nan nan
nan nan nan nan nan nan nan nan nan nan nan nan nan nan nan nan nan nan nan nan nan nan nan nan nan nan 234 nan nan nan 257 255 nan nan 251 258 272 272 265 271 275 274 278 280 279 275 275 271 266 278 283 283 283 284 282 279 278 276 272 269 269 269 nan nan nan nan nan nan nan nan nan 266 266 266 266 268 270 270 270 271 nan nan nan nan nan nan
nan nan nan nan nan nan nan nan nan nan nan nan nan nan nan nan nan nan nan nan nan nan nan nan nan 220 228 227 238 243 254 nan nan nan 250 nan 257 264 267 270 275 280 285 285 282 281 278 283 289 286 282 283 283 280 279 279 277 275 273 272 271 nan nan nan nan nan nan nan nan nan nan nan 268 267 266 265 265 268 271 nan nan nan nan nan nan nan
nan nan nan nan nan nan nan nan nan nan nan nan nan nan nan nan nan nan nan nan nan nan nan nan nan 218 224 228 234 228 nan nan nan nan 246 240 248 263 266 272 276 280 281 277 274 276 277 278 280 278 277 275 276 277 277 276 274 274 274 274 274 nan nan nan nan nan nan nan nan nan nan nan 271 271 268 268 268 269 269 nan nan nan nan nan nan nan
nan nan nan nan nan nan nan nan nan nan nan nan nan nan nan nan nan nan nan nan nan nan nan nan nan 224 229 227 226 234 nan nan nan 237 243 247 250 257 264 269 272 275 276 277 277 273 274 275 275 274 273 275 273 271 271 274 274 275 274 276 275 nan nan nan nan nan nan nan nan nan nan nan nan nan 272 270 270 nan nan nan nan nan nan nan nan nan
nan nan nan nan nan nan nan nan nan nan nan nan nan nan nan nan nan nan nan nan nan nan nan nan 225 246 246 238 240 236 236 236 240 242 242 248 256 258 258 261 268 271 266 266 270 275 277 273 269 269 271 271 268 269 271 272 271 271 272 272 nan nan nan nan nan nan nan nan nan nan nan nan nan nan nan 272 272 270 nan nan nan nan nan nan nan nan
nan nan nan nan nan nan nan nan nan nan nan nan nan nan nan nan nan nan nan nan nan nan nan nan 234 253 252 245 256 249 246 241 242 247 250 252 255 260 261 261 260 260 265 268 271 270 266 264 270 271 271 270 269 268 270 272 274 271 271 274 nan nan nan nan nan nan nan nan nan nan nan nan nan nan nan nan nan nan nan nan nan nan nan nan nan nan
nan nan nan nan nan nan nan nan nan nan nan nan nan nan nan nan nan nan nan nan nan nan nan nan 238 243 249 248 255 252 252 248 248 249 255 250 250 256 261 254 257 260 262 261 264 267 267 270 271 271 270 268 267 266 267 269 273 274 275 273 nan nan nan nan nan nan nan nan nan nan nan nan nan nan nan nan nan nan nan nan nan nan nan nan nan nan
nan nan nan nan nan nan nan nan nan nan nan nan nan nan nan nan nan nan 201 nan nan nan nan 230 239 235 nan 240 246 259 257 254 255 256 251 251 247 244 254 260 258 263 267 267 268 265 270 271 270 267 264 261 263 264 266 269 272 272 274 277 nan nan nan nan nan nan nan nan nan nan nan nan nan nan nan nan nan nan nan nan nan nan nan nan nan nan
nan nan nan nan nan nan nan nan nan nan nan nan nan nan nan nan nan nan nan nan nan nan nan nan 233 241 nan nan 250 252 256 257 257 258 254 254 252 250 255 258 260 260 260 260 262 264 267 269 267 265 263 262 265 266 266 267 268 272 nan 281 nan nan nan nan nan nan nan nan nan nan nan nan nan nan nan nan nan nan nan nan nan nan nan nan nan nan
nan nan nan nan nan nan nan nan nan nan nan nan nan nan nan nan nan nan nan nan nan nan nan nan nan nan nan 243 245 251 254 254 255 260 262 265 261 257 258 258 256 253 250 253 257 259 260 264 266 267 264 264 266 264 263 267 272 nan nan nan nan nan nan nan nan nan nan nan nan nan nan nan nan nan nan nan nan nan nan nan nan nan nan nan nan nan
nan nan nan nan nan nan nan nan nan nan nan nan nan nan nan nan nan nan nan nan nan nan nan nan nan nan 236 239 245 251 258 258 259 262 267 271 270 263 263 262 260 253 255 254 255 257 260 260 261 268 269 268 265 263 267 271 272 273 272 275 nan nan nan nan nan nan nan nan nan nan nan nan nan nan nan nan nan nan nan nan nan nan nan nan nan nan
nan nan nan nan nan nan nan nan nan nan nan nan nan nan nan nan nan nan nan nan nan nan nan nan nan 236 240 243 253 259 262 260 260 263 265 271 274 265 259 260 260 258 253 256 257 258 260 260 261 262 263 263 264 266 271 271 271 nan nan nan nan nan nan nan nan nan nan nan nan nan nan nan nan nan nan nan nan nan nan nan nan nan nan nan nan nan
nan nan nan nan nan nan nan nan nan nan nan nan nan nan nan nan nan nan nan nan nan nan nan nan 234 244 244 243 252 259 265 259 258 257 254 260 264 258 255 256 257 255 254 255 257 259 257 257 261 262 260 258 261 263 265 264 263 nan nan nan nan nan nan nan nan nan nan nan nan nan nan nan nan nan nan nan nan nan nan nan nan nan nan nan nan nan
nan nan nan nan nan nan nan nan nan nan nan 217 209 202 194 nan nan nan nan nan nan nan nan nan 247 253 250 245 244 244 249 253 252 254 257 260 258 254 253 257 257 258 260 262 260 258 256 257 261 261 259 257 253 252 255 252 nan nan nan nan nan nan nan nan nan nan nan nan nan nan nan nan nan nan nan nan nan nan nan nan nan nan nan nan nan nan
nan nan nan nan nan nan nan nan nan nan 218 213 210 199 199 198 200 nan nan nan nan nan nan nan nan 245 244 241 243 243 249 254 256 255 254 253 257 258 256 256 263 264 257 260 263 262 262 260 260 264 263 259 259 261 nan nan nan nan nan nan nan nan nan nan nan nan nan nan nan nan nan nan nan nan nan nan nan nan nan nan nan nan nan nan nan nan
nan nan nan nan nan nan nan nan nan nan 220 214 208 204 209 207 nan nan nan nan nan nan nan nan nan 244 240 241 243 248 255 256 256 258 258 261 258 260 265 262 260 258 259 256 258 260 259 258 259 259 258 262 267 269 nan nan nan nan nan nan nan nan nan nan nan nan nan nan nan nan nan nan nan nan nan nan nan nan nan nan nan nan nan nan nan nan
nan nan nan nan nan nan nan nan nan nan nan 220 218 210 208 202 199 nan nan nan nan nan nan nan nan 248 246 249 249 248 252 253 253 259 268 270 261 261 260 262 259 257 254 254 254 258 260 262 262 262 263 266 266 nan nan nan nan nan nan 282 285 nan nan nan nan nan nan nan nan nan nan nan nan nan nan nan nan nan nan nan nan nan nan nan nan nan
nan nan nan nan nan nan nan nan nan nan nan 215 nan 226 214 202 nan 215 nan nan nan nan nan nan nan 254 254 252 254 255 250 248 249 259 270 271 266 262 259 258 257 249 249 254 261 263 264 265 268 268 268 270 271 273 nan nan nan 284 284 286 nan nan nan nan nan nan nan nan nan nan nan nan nan nan nan nan nan nan nan nan nan nan nan nan nan nan
nan nan nan nan nan nan nan nan nan nan 221 221 226 222 225 214 nan nan nan nan nan nan nan nan nan 258 257 257 255 253 254 243 250 256 265 267 263 259 257 257 254 252 254 257 257 262 266 267 270 270 272 274 277 282 nan nan nan nan nan nan 282 nan nan nan nan nan nan nan nan nan nan nan nan nan nan nan nan nan nan nan nan nan nan nan nan nan
nan nan nan nan nan nan nan nan nan nan 219 227 224 215 219 220 217 nan nan nan 215 nan nan nan nan 259 258 261 259 250 251 232 251 261 265 267 264 261 257 255 255 256 259 258 258 259 262 269 272 272 274 274 278 nan 287 284 nan nan nan nan nan nan nan nan nan nan nan nan nan nan nan nan nan nan nan nan nan nan nan nan nan nan nan nan nan nan
nan nan nan nan nan nan nan nan nan nan 229 230 226 231 220 221 nan nan 220 209 209 209 nan nan nan 260 263 268 256 240 238 248 259 262 266 266 262 262 259 259 259 259 256 253 256 259 262 266 268 271 271 273 279 nan nan nan nan nan nan nan nan nan nan nan nan nan nan nan nan nan nan nan nan nan nan nan nan nan nan nan nan nan nan nan nan nan
nan nan nan nan nan nan nan nan nan nan 222 225 237 230 223 216 nan 210 203 208 209 209 217 nan nan 255 258 253 242 237 249 254 259 262 261 262 262 261 261 261 260 260 257 257 260 257 256 259 266 267 266 270 272 nan nan nan nan nan nan nan nan nan nan nan nan nan nan nan nan nan nan nan nan nan nan nan nan nan nan nan nan nan nan nan nan nan
nan nan nan nan nan nan nan nan nan nan 240 237 241 225 227 216 212 208 202 210 211 215 212 217 nan 249 248 242 242 244 249 247 250 260 259 262 263 257 253 252 249 249 255 261 261 255 255 259 259 262 268 265 264 269 276 nan nan nan nan nan nan nan nan nan nan nan nan nan nan nan nan nan nan nan nan nan nan nan nan nan nan nan nan nan nan nan
nan nan 199 195 nan nan nan 219 nan 233 242 242 238 238 237 223 211 209 209 211 213 215 215 218 222 225 224 238 239 249 249 246 250 258 260 257 254 249 247 250 250 253 255 254 255 256 257 261 264 266 267 266 271 270 nan nan nan nan nan nan nan nan nan nan nan nan nan nan nan nan nan nan nan nan nan nan nan nan nan nan nan nan nan nan nan nan
205 201 198 200 nan 219 218 222 220 227 234 239 236 236 238 229 216 208 208 214 212 220 219 223 232 246 239 242 243 249 250 249 251 253 250 249 250 246 243 244 249 251 251 250 247 251 256 259 264 266 266 268 272 nan nan nan nan nan nan nan nan nan nan nan nan nan nan nan nan nan nan nan nan nan nan nan nan nan nan nan nan nan nan nan nan nan
192 196 199 nan nan nan nan nan 226 227 229 232 232 231 229 223 222 213 215 215 217 219 223 220 230 238 239 240 247 249 258 253 248 249 246 245 247 249 251 253 255 257 258 260 256 251 254 261 263 265 267 270 nan nan nan nan nan nan nan nan nan nan nan nan nan nan nan nan nan nan nan nan nan nan nan nan nan nan nan nan nan nan nan nan nan nan
199 195 nan nan nan nan 220 217 212 215 219 223 227 230 232 231 227 222 217 218 219 221 221 227 224 227 235 241 249 253 257 259 253 249 249 243 246 253 255 255 257 253 249 254 257 260 261 264 268 268 270 269 nan nan nan nan nan nan nan nan nan nan nan nan nan nan nan nan nan nan nan nan nan nan nan nan nan nan nan nan nan nan nan nan nan nan
195 193 nan 193 213 219 230 231 229 226 220 229 224 222 230 231 230 226 226 226 225 228 231 231 229 227 226 238 253 253 252 255 253 250 248 242 245 246 250 252 255 255 255 258 257 260 257 261 267 270 269 nan nan nan nan nan nan nan nan nan nan nan nan nan nan nan nan nan nan nan nan nan nan nan nan nan nan nan nan nan nan nan nan nan nan nan
209 nan 192 nan nan nan nan 222 211 225 nan 236 226 228 228 232 231 231 227 228 227 229 230 235 237 235 233 239 248 252 252 249 248 245 246 241 244 250 250 251 251 254 255 256 252 255 261 264 263 266 nan nan nan nan nan nan nan nan nan nan nan nan nan nan nan nan nan nan nan nan nan nan nan nan nan nan nan nan nan nan nan nan nan nan nan nan
207 nan 210 nan nan nan 225 227 225 229 229 225 239 235 234 234 235 233 230 225 225 230 236 238 237 236 236 236 240 253 250 244 241 nan nan nan nan 240 244 252 254 253 252 253 254 251 249 252 261 nan nan nan nan nan nan nan nan nan nan nan nan nan nan nan nan nan nan nan nan nan nan nan nan nan nan nan nan nan nan nan nan nan nan nan nan nan